Weather History for KRDG - January, 2013

Change the Weather History Date:

Wednesday, January 16, 2013

  Actual Average Record
Temperature  
Mean Temperature 35 °F 29 °F  
Max Temperature 37 °F 37 °F 62 °F (1995)
Min Temperature 33 °F 22 °F 0 °F (1994)
Degree Days  
Heating Degree Days 30 36  
Month to date heating degree days 441 561  
Since 1 July heating degree days 2278 2592  
Cooling Degree Days 0 0  
Month to date cooling degree days 0 0  
Year to date cooling degree days 0 0  
Moisture  
Dew Point 33 °F    
Average Humidity 93    
Maximum Humidity 100    
Minimum Humidity 85    
Precipitation  
Precipitation 0.52 in 0.09 in 1.90 in (1945)
Month to date precipitation 1.15 1.72  
Year to date precipitation 1.15 1.72  
Sea Level Pressure  
Sea Level Pressure 30.02 in    
Wind  
Wind Speed 2 mph (North)    
Max Wind Speed 17 mph    
Max Gust Speed 20 mph    
Visibility 4 miles    
Events Rain    
T = Trace of Precipitation, MM = Missing Value Source: NWS Daily Summary

Daily Weather History Graph

Daily Weather History Graph

Search for Another Location

Airport or City:

Trip Planner

Search our weather history database for the weather conditions in past years. The results will help you decide how hot, cold, wet, or windy it might be!

Date:

Astronomy

Jan. 16, 2013 Rise Set
Actual Time 7:24 AM EST 5:03 PM EST
Civil Twilight 6:54 AM EST 5:33 PM EST
Nautical Twilight 6:20 AM EST 6:06 PM EST
Astronomical Twilight 5:48 AM EST 6:39 PM EST
Moon 9:58 AM EST (1/16) 10:53 PM EST (1/16)
Length of Visible Light 10h 38m
Length of Day
9h 39m
Waxing Crescent, 28% of the Moon is Illuminated
Jan 16
Waxing Crescent
Jan 18
First Quarter
Jan 26
Full
Feb 3
Last Quarter
Feb 10
New

Hourly Weather History & Observations

Time (EST) Temp. Windchill Dew Point Humidity Pressure Visibility Wind Dir Wind Speed Gust Speed Precip Events Conditions
12:18 AM 33.8 °F 30.8 °F 33.8 °F 100% 30.18 in 4.0 mi North 3.5 mph - 0.05 in Rain Rain
12:28 AM 33.8 °F 29.6 °F 32.0 °F 93% 30.17 in 4.0 mi NNE 4.6 mph - 0.06 in Rain Rain
1:18 AM 33.8 °F 29.6 °F 30.2 °F 87% 30.14 in 5.0 mi NE 4.6 mph - 0.03 in Rain Light Freezing Rain
1:30 AM 33.8 °F 28.6 °F 30.2 °F 87% 30.15 in 5.0 mi NNE 5.8 mph - 0.05 in Rain Light Freezing Rain
1:54 AM 33.1 °F 27.7 °F 30.9 °F 92% 30.17 in 5.0 mi NE 5.8 mph - 0.10 in Rain Light Freezing Rain
2:19 AM 33.8 °F 29.6 °F 30.2 °F 87% 30.13 in 4.0 mi NNE 4.6 mph - 0.05 in Rain Light Freezing Rain
2:54 AM 33.1 °F 30.0 °F 30.9 °F 92% 30.15 in 3.0 mi NNE 3.5 mph - 0.13 in Rain Light Freezing Rain
3:37 AM 33.8 °F 30.8 °F 32.0 °F 93% 30.10 in 5.0 mi NNE 3.5 mph - 0.08 in Rain Light Rain
3:54 AM 33.1 °F - 32.0 °F 96% 30.11 in 5.0 mi Calm Calm - 0.10 in Rain Light Rain
4:22 AM 33.8 °F 30.8 °F 32.0 °F 93% 30.08 in 8.0 mi East 3.5 mph - 0.02 in Rain Light Rain
4:31 AM 33.8 °F 30.8 °F 32.0 °F 93% 30.08 in 8.0 mi SSW 3.5 mph - 0.02 in Rain Light Rain
4:54 AM 34.0 °F - 32.0 °F 92% 30.07 in 8.0 mi Calm Calm - 0.03 in Rain Light Rain
5:54 AM 34.0 °F 29.8 °F 30.9 °F 89% 30.08 in 10.0 mi East 4.6 mph - 0.03 in Rain Light Rain
6:54 AM 33.1 °F - 32.0 °F 96% 30.09 in 6.0 mi Calm Calm - 0.01 in   Overcast
7:20 AM 33.8 °F - 32.0 °F 93% 30.04 in 3.0 mi Calm Calm - 0.00 in Rain Light Rain
7:54 AM 34.0 °F - 32.0 °F 92% 30.03 in 3.0 mi Calm Calm - 0.03 in Rain Light Rain
8:54 AM 34.0 °F - 32.0 °F 92% 30.01 in 3.0 mi Calm Calm - 0.00 in Rain Light Rain
9:54 AM 34.0 °F 29.8 °F 32.0 °F 92% 30.05 in 3.0 mi West 4.6 mph - 0.00 in Rain Light Rain
10:54 AM 34.0 °F 29.8 °F 33.1 °F 96% 30.03 in 2.0 mi NW 4.6 mph - 0.01 in Rain Light Rain
11:54 AM 34.0 °F 31.0 °F 33.1 °F 96% 29.94 in 2.0 mi Variable 3.5 mph - 0.00 in Rain Light Rain
12:14 PM 35.6 °F - 33.8 °F 93% 29.89 in 3.0 mi Calm Calm - 0.00 in   Overcast
12:54 PM 34.0 °F 31.0 °F 33.1 °F 96% 29.86 in 3.0 mi ENE 3.5 mph - 0.00 in   Overcast
1:54 PM 35.1 °F 31.0 °F 33.1 °F 92% 29.93 in 3.0 mi NW 4.6 mph - N/A   Overcast
2:54 PM 35.1 °F 32.2 °F 33.1 °F 92% 29.91 in 3.0 mi WSW 3.5 mph - N/A   Overcast
3:29 PM 35.6 °F - 33.8 °F 93% 29.90 in 3.0 mi Calm Calm - N/A   Overcast
3:54 PM 35.1 °F - 33.1 °F 92% 29.93 in 3.0 mi Calm Calm - N/A   Overcast
4:01 PM 35.6 °F - 33.8 °F 93% 29.91 in 3.0 mi Calm Calm - N/A   Overcast
4:08 PM 35.6 °F - 33.8 °F 93% 29.92 in 3.0 mi Calm Calm - N/A   Overcast
4:54 PM 35.1 °F 32.2 °F 33.1 °F 92% 29.95 in 3.0 mi South 3.5 mph - N/A   Overcast
5:01 PM 35.6 °F - 33.8 °F 93% 29.92 in 3.0 mi Calm Calm - N/A   Overcast
5:54 PM 36.0 °F - 34.0 °F 93% 29.95 in 3.0 mi Calm Calm - N/A   Overcast
6:54 PM 36.0 °F - 34.0 °F 93% 29.96 in 3.0 mi Calm Calm - N/A   Overcast
7:54 PM 36.0 °F - 34.0 °F 93% 29.98 in 3.0 mi Calm Calm - N/A   Overcast
8:54 PM 36.0 °F 31.1 °F 33.1 °F 89% 29.98 in 3.0 mi West 5.8 mph - N/A   Scattered Clouds
9:54 PM 36.0 °F 33.3 °F 34.0 °F 93% 29.97 in 4.0 mi WSW 3.5 mph - N/A   Clear
10:54 PM 37.0 °F 34.5 °F 34.0 °F 89% 29.98 in 9.0 mi WSW 3.5 mph - N/A   Clear
11:54 PM 36.0 °F - 34.0 °F 93% 29.97 in 8.0 mi Calm Calm - N/A   Clear